Regional Weather Roundup
Issued by NWS

Home | Current Version | Previous Version | Text Only | Print | Product List | Glossary On
Versions: 1 2 3 4 5 6 7 8 9 10 11 12 13 14 15 16 17 18 19 20 21 22 23 24 25 26 27 28
000
ASUS44 KBMX 220910
RWRAL

ALABAMA REGIONAL WEATHER ROUNDUP
NATIONAL WEATHER SERVICE BIRMINGHAM AL
400 AM CDT SUN OCT 22 2017

NOTE: "FAIR" INDICATES FEW OR NO CLOUDS BELOW 12,000 FEET
WITH NO SIGNIFICANT WEATHER AND/OR OBSTRUCTIONS TO VISIBILITY.

THE REMARK "TC" DENOTES TEMPERATURE IN DEGREES CELSIUS.

ALZ001>011-014-016>018-020-221000-
NORTH ALABAMA

CITY           SKY/WX    TMP DP  RH WIND       PRES   REMARKS
MUSCLE SHOALS  CLOUDY    63  57  81 E3        30.13S
HUNTSVILLE     MOCLDY    64  57  78 E13       30.14F
DECATUR        PTCLDY    64  56  75 SE5       30.14F
HALEYVILLE     FAIR      64  60  87 SE9       30.14F
GADSDEN        PTCLDY    58  57  97 NE7       30.19F
$$

ALZ012-013-022-023-030>036-040>044-221000-
WEST CENTRAL ALABAMA

CITY           SKY/WX    TMP DP  RH WIND       PRES   REMARKS
TUSCALOOSA     MOCLDY    67  62  84 E7        30.11F
DEMOPOLIS        N/A     65  61  86 E5        30.10F
$$

ALZ015-024>026-033>036-041>044-221000-
CENTRAL ALABAMA

CITY           SKY/WX    TMP DP  RH WIND       PRES   REMARKS
BIRMINGHAM     CLOUDY    66  58  75 E6        30.18S
MONTGOMERY     CLEAR     63  58  83 E7        30.15S
SHELBY CO ARPT PTCLDY    64  60  87 SE6       30.15F
MAXWELL AFB    CLEAR     65  60  84 E7        30.14S
GREENVILLE     FAIR      65  59  81 E6        30.12F
SELMA          FAIR      64  61  88 E5        30.13R
PRATTVILLE     FAIR      63  60  91 E3        30.14S
BESSEMER       FAIR      65  59  81 SE6       30.15F
TALLADEGA      FAIR      60  56  89 SE3       30.19S
PELL CITY      SUNNY     55  55 100 CALM      30.17F
MARION         NOT AVBL
SYLACAUGA      FAIR      64  60  90 SE8       30.17F
$$

ALZ019-021-028-029-037-038-045>048-221000-
EAST CENTRAL ALABAMA

CITY           SKY/WX    TMP DP  RH WIND       PRES   REMARKS
ANNISTON       CLOUDY    59  55  87 CALM      30.20S
ALEXANDER CITY PTCLDY    63  59  88 E3        30.18F
AUBURN         CLOUDY    64  61  90 E8        30.20F
$$

ALZ051>064-221000-
SOUTHWEST ALABAMA

CITY           SKY/WX    TMP DP  RH WIND       PRES   REMARKS
MOBILE         PTCLDY    70  67  90 E7        30.07S
BROOKLEY FIELD CLOUDY    73  70  90 E10       30.07S
EVERGREEN      CLEAR     59  57  93 CALM      30.11F
$$

ALZ049-050-065>069-221000-
SOUTHEAST ALABAMA

CITY           SKY/WX    TMP DP  RH WIND       PRES   REMARKS
DOTHAN         CLEAR     66  65  96 E8        30.17F
OZARK          CLEAR     64  61  91 NE7       30.13S
TROY           CLEAR     62  61  96 NE6       30.15F
EUFAULA        FAIR      65  63  93 VRB3      30.16S
$$




USA.gov is the U.S. government's official web portal to all federal, state and local government web resources and services.